STARLINK-30244, 57614

Orbit data source: Space-Track

STARLINK-30244, 57614 is a payload satellite owned by SpaceX/Seattle (US) in LEO that was launched on Fri, 11 Aug 2023 UTC via an FALCON 9 launch vehicle from the Air Force Eastern Test Range (AFETR). Payload-class satellites include a variety of spacecraft equipped with specific instruments for various scientific and technological missions. These include communications satellites like Starlink; space stations such as the ISS; scientific satellites like the Hubble; Earth observation satellites from companies like Planet Labs, Umbra, and HawkEye 360; GPS; miniature CubeSats for education and research; and military/defense satellites.

Loading next visibility...
Identifier
57614, 2023-119N
Orbit
LEO
Country
Flag of USUS
Related business
Manufacturer
SpaceX/Seattle
Mission
Operational Commercial Communications
Bus & Motor
STARLINK V2M, Unknown motor
Mass
730 kg wet, ~700 kg dry
Launch date (UTC)
2023-08-11 (3 years ago)
Launch vehicle
FALCON 9
Launch site
Air Force Eastern Test Range (AFETR)
Object type
Payload
Rocket body
Debris
Shape & HBR
Box + 2 Pan, 17.7 m
Radar Cross Section
33.884 m², Large (>1 m²)

Expand to show TLE details & history
Last TLE update: 18 hours ago

TLE from 18 hours ago
0 STARLINK-30244
1 57614U 23119N   26094.88217189  .00007339  00000-0  27590-3 0  9992
2 57614  42.9987 293.5317 0000826 343.0018  17.0806 15.27584117147093
Epoch: 2026-04-04T21:10Z
TLE epoch observation values (Epoch: 2026-04-04T21:10:19.651Z)
Latitude
Longitude
142.75425°
Altitude
482.27 km
Speed
7.626 km/s
True Right ascension
19h 34m 07s
True Declination
0° 00' 00"
Sunlit
Object was in daylight at epoch
Visualization orbit readout
Latitude
Unknown
Longitude
Unknown
Altitude
Unknown
Speed
Unknown
Apparent Right ascension
Unknown
Apparent Declination
Unknown
Sunlit
N/A
Visualization observer readout
Local Sidereal Time
20:51:37
Azimuth
Unknown
Elevation
Unknown
Doppler factor
Unknown
Orbital elements
Apogee altitude
485.549 km
Perigee altitude
484.415 km
Semi-major axis
6,863.119 km
Eccentricity
0.00008
Inclination
42.9987°
RAAN
293.5317°
Arg. of periapsis
343.0018°
True anomaly
17.08338°
Mean anomaly
17.0806°
Eccentric anomaly
17.08199°
Mean motion
3.81734 °/min
Orbital period
94.31 mins
BSTAR
0.0002759
Loading maneuver chart data...
Computing Atmospheric mass density...
Loading historical data...
Loading historical data...
Loading historical data...
Loading historical data...
Loading historical data...
Loading historical data...
Loading historical data...

Documentation

Showing up to 5 results
|